Hourly Data Report for October 22, 2014

All times are specified in Local Standard Time (LST). Add 1 hour to adjust for Daylight Saving Time where and when it is observed.

WINNIPEG A CS
MANITOBA

49°55'00.000" N
97°14'58.000" W
238.70 m
502S001
71849
XWG

Download Data

Hourly Data (October 2014)
Hourly Data Report for October 22, 2014
Temp Definition
°C
Dew Point Temp Definition
°C
Rel Hum Definition
%
Wind Dir Definition
10's deg

Wind Spd Definition
km/h
Visibility Definition
km
Stn Press Definition
kPa
Hmdx Definition


Wind Chill Definition


Weather Definition


TIME
00:00 12.5 4.7 59 18 47   97.97     LegendNANA
01:00 12.6 5.0 60 18 49   97.95     LegendNANA
02:00 12.9 5.1 59 17 45   97.89     LegendNANA
03:00 13.5 5.2 57 17 44   97.83     LegendNANA
04:00 13.4 5.3 58 18 41   97.87     LegendNANA
05:00 13.3 5.3 58 18 47   97.83     LegendNANA
06:00 13.2 5.1 58 18 48   97.81     LegendNANA
07:00 13.3 5.1 58 18 46   97.80     LegendNANA
08:00 13.2 5.2 58 18 44   97.83     LegendNANA
09:00
10:00
11:00
12:00
13:00 16.5 8.1 57 18 34   97.75     LegendNANA
14:00 15.5 8.2 62 18 32   97.76     LegendNANA
15:00 16.7 8.3 57 18 37   97.77     LegendNANA
16:00 16.8 8.6 59 19 31   97.79     LegendNANA
17:00 15.6 9.3 66 21 30   97.81     LegendNANA
18:00 12.6 11.4 93 21 25   97.87     LegendNANA
19:00 12.4 11.4 94 19 19   97.89     LegendNANA
20:00 12.1 11.2 94 19 21   97.88     LegendNANA
21:00 11.7 10.6 93 19 23   97.88     LegendNANA
22:00 11.1 10.2 94 20 20   97.88     LegendNANA
23:00 10.6 9.2 91 21 19   97.88     LegendNANA

Notes on Data Quality.

Legend

  • E = Estimated
  • M = Missing
  • NA = Not Available
  • ‡ = Partner data that is not subject to review by the National Climate Archives
Date modified: